Current weather by "City, St" or "zip code"  
 
Advertise Here

Current Conditions: Tulsa - Jones Jr. Airport, OK

Fair


43.0 F

Last Updated on Jan 22 2021, 3:53 am CST
Humidity: 86%
Wind Speed: N 8.1 mph
Barometer 30.01 in
Dewpoint: 39.0 F
Visibility: 10.00 mi
Precip: --
Heat Index: NA
Wind Chill: 38 F
Current conditions at:

Tulsa - Jones Jr. Airport, OK (KRVS)

Lat: 36.04255 Lon: 95.99005

Local Radar Image active severe weather and emergency alerts image image weather storm and storm spotter reports image weather observation monitoring service image
Local
Radar
Active
Alerts
Storm Reports Obs
Monitoring

Sign-up For Email & Text Message Weather Alert Notification Services


Advertise Here

Observation History for Tulsa - Jones Jr. Airport, OK


Time Wind
(mph)
Vis
(mi)
Weather Precip (in) Temperature (F) Relative
Humidity
Wind
Chill
(F)
Heat
Index
(F)
Pressure
Air Dwpt altimeter
(in)
sea level
(mb)
Rmks
3:53 am CST N 8.1 10.00 Fair -- 43.0 39.0 86% 38 NA 30.01 1016.8
2:53 am CST N 6.9 10.00 Fair -- 43.0 39.0 86% 39 NA 30.02 1017.0
1:53 am CST N 4.6 5.00 Fog/Mist -- 39.0 37.0 93% 36 NA 30.00 1016.3
12:53 am CST NW 3.5 3.00 Fog/Mist -- 37.0 36.0 96% NA NA 30.01 1016.8
11:53 pm CST N 0.0 3.00 Fog/Mist -- 37.0 36.0 96% NA NA 29.98 1015.9
10:53 pm CST N 0.0 4.00 Fog/Mist -- 37.0 36.0 96% NA NA 30.00 1016.5
9:53 pm CST N 0.0 4.00 Fog/Mist -- 37.0 36.0 96% NA NA 29.98 1015.8
8:53 pm CST N 0.0 3.00 Fog/Mist -- 35.0 34.0 96% NA NA 29.97 1015.5
7:53 pm CST N 0.0 4.00 Fog/Mist -- 37.0 36.0 96% NA NA 29.96 1015.1
6:53 pm CST N 0.0 6.00 Fog/Mist -- 40.0 37.9 93% NA NA 29.94 1014.6
5:53 pm CST N 0.0 10.00 Fair -- 43.0 39.9 89% NA NA 29.93 1014.3
4:53 pm CST N 0.0 10.00 Fair -- 48.0 41.0 77% NA NA 29.92 1013.6
3:53 pm CST E 3.5 10.00 Fair -- 50.0 42.1 74% NA NA 29.92 1013.9
2:53 pm CST S 3.5 10.00 Overcast -- 48.0 42.1 80% NA NA 29.94 1014.3
1:53 pm CST E 5.8 10.00 Overcast -- 47.0 42.1 83% 44 NA 29.94 1014.4
12:53 pm CST SE 6.9 10.00 Overcast -- 47.0 42.1 83% 44 NA 29.97 1015.3
11:53 am CST SE 5.8 9.00 Overcast -- 46.0 42.1 86% 43 NA 29.99 1016.1
10:53 am CST SE 4.6 10.00 Overcast -- 46.0 42.1 86% 44 NA 30.02 1017.0
9:53 am CST E 4.6 8.00 Overcast -- 45.0 43.0 93% 43 NA 30.01 1016.8
8:53 am CST SE 4.6 9.00 Overcast -- 45.0 42.1 90% 43 NA 29.99 1016.1
7:53 am CST N 0.0 5.00 Fog/Mist -- 40.0 39.9 100% NA NA 29.99 1016.2
6:53 am CST N 0.0 10.00 Mostly Cloudy -- 40.0 39.9 100% NA NA 29.98 1015.9
5:53 am CST N 0.0 7.00 Mostly Cloudy -- 39.0 37.9 96% NA NA 29.98 1015.8
4:53 am CST N 0.0 10.00 Mostly Cloudy -- 40.0 39.0 97% NA NA 29.98 1015.8

Regional Weather Observation


Tulsa - Jones Jr. Airport, OK (KRVS)

Fair
43.0 F

Tulsa, Tulsa International Airport, OK (KTUL)

Mostly Cloudy
42.0 F

Bartlesville, Bartlesville Municipal Airport, OK (KBVO)

Fair
39.0 F

Claremore, Claremore Regional Airport, OK (KGCM)

Fair
41.0 F

Cushing, Cushing Municipal Airport, OK (KCUH)

Fair
39.0 F

Mid-America Industrial Airport, OK (KH71)

Overcast
46.0 F